Location: ?????
(55.8833°N, 37.6500°E)
Time: 06:12:20
(UTC+00:00)

Cosmos 2219 Rocket - Pass Details

Date: 27 February 2020
Orbit: 828 x 846 km, 71.0° (Epoch: 30 March)

Event Time Altitude Azimuth Distance (km) Brightness Sun altitude
Exits shadow 23:36:12 29° 12° (NNE) 1,499 3.8 -37.3°
Drops below altitude 10° 23:39:11 10° 30° (NNE) 2,477 5.4 -37.1°
Sets 23:41:45 0° 36° (NE) 3,413 6.3 -36.9°
